FW7205 Weather Reports


time (UTC)temp
F
wind
direction
speed
knots
gust
knots
rain 1hr
in
rain 24hr
in
rain mn
in
humidity
%
barometer
mb
20260508030055 64 360 0.0 2.6 0.00 0.00 0.00 79 1012.8
20260508024555 64 360 0.0 1.7 0.00 0.00 0.00 78 1013.5
20260508023054 64 360 0.0 1.7 0.00 0.00 0.00 77 1013.9
20260508021556 64 360 0.0 2.6 0.00 0.00 0.00 77 1013.1
20260508020103 64 360 0.0 2.6 0.00 0.00 0.00 76 1013.1
20260508014557 65 0 0.0 0.9 0.00 0.00 0.00 76 1013.6
20260508013056 65 0 0.0 0.9 0.00 0.00 0.00 75 1013.7
20260508011555 65 0 0.0 0.9 0.00 0.00 0.00 74 1014.0
20260508010057 65 0 0.0 1.7 0.00 0.00 0.00 73 1013.9
20260508004600 66 0 0.0 1.7 0.00 0.00 0.00 73 1013.9
20260508003052 66 52 0.0 1.7 0.00 0.00 0.00 72 1013.5
20260508001555 66 0 0.0 0.9 0.00 0.00 0.00 72 1013.9
20260508000053 67 0 0.0 0.9 0.00 0.00 0.00 71 1014.2
20260507234555 67 0 0.0 0.9 0.00 0.00 0.00 71 1014.1
20260507233056 67 41 0.0 2.6 0.00 0.00 0.00 70 1014.2
20260507231558 67 0 0.0 2.6 0.00 0.00 0.00 69 1013.9
20260507230101 67 0 0.0 1.7 0.00 0.00 0.00 69 1014.1
20260507224558 68 337 0.0 1.7 0.00 0.00 0.00 69 1014.7
20260507223052 68 344 0.0 1.7 0.00 0.00 0.00 69 1014.4
20260507221556 68 329 0.0 2.6 0.00 0.00 0.00 69 1014.2
20260507220056 68 352 0.0 2.6 0.00 0.00 0.00 69 1014.4
20260507214603 68 0 0.0 1.7 0.00 0.00 0.00 69 1014.1
20260507213057 68 0 0.0 1.7 0.00 0.00 0.00 69 1014.3
20260507211605 68 0 0.0 2.6 0.00 0.00 0.00 68 1013.9
20260507204557 68 49 0.0 2.6 0.00 0.00 0.00 68 1014.2
20260507203106 69 0 0.0 2.6 0.00 0.00 0.00 68 1014.7
20260507201600 69 0 0.0 2.6 0.00 0.00 0.00 68 1014.7
20260507200109 69 19 0.0 4.3 0.00 0.00 0.00 66 1015.2
20260507194557 69 348 0.0 6.1 0.00 0.00 0.00 66 1015.4
20260507193058 70 352 0.0 3.5 0.00 0.00 0.00 66 1015.3
20260507191600 70 0 0.9 4.3 0.00 0.00 0.00 66 1015.1
20260507190104 69 27 0.0 4.3 0.00 0.00 0.00 68 1015.0
20260507184600 69 48 0.9 2.6 0.00 0.00 0.00 68 1015.8
20260507183054 69 75 0.0 2.6 0.00 0.00 0.00 68 1015.5
20260507181552 68 352 0.0 1.7 0.00 0.00 0.00 68 1016.5
20260507180055 69 0 0.0 2.6 0.00 0.00 0.00 68 1017.0
20260507174558 67 15 0.0 3.5 0.00 0.00 0.00 70 1015.9
20260507173054 66 67 0.9 3.5 0.00 0.00 0.00 71 1016.1
20260507171600 65 0 0.9 2.6 0.00 0.00 0.00 72 1016.4
20260507164601 63 355 0.0 1.7 0.00 0.00 0.00 75 1016.9
20260507163055 63 0 0.0 1.7 0.00 0.00 0.00 74 1017.1
20260507161555 64 0 0.0 2.6 0.00 0.00 0.00 76 1016.5
20260507160058 63 0 0.9 3.5 0.00 0.00 0.00 76 1016.7
20260507154559 63 0 0.9 2.6 0.00 0.00 0.00 76 1016.6
20260507153051 62 76 1.7 4.3 0.00 0.00 0.00 79 1015.8
20260507151552 60 360 0.9 3.5 0.00 0.00 0.00 80 1016.6
20260507150055 60 0 0.9 2.6 0.00 0.00 0.00 82 1016.3
20260507144553 59 360 0.9 2.6 0.00 0.00 0.00 82 1016.6
20260507143058 59 360 0.9 2.6 0.00 0.00 0.00 83 1016.5
20260507141555 59 360 0.9 3.5 0.00 0.00 0.00 84 1016.6
20260507140056 59 0 0.9 3.5 0.00 0.00 0.00 84 1016.8
20260507134554 59 360 0.0 3.5 0.00 0.00 0.00 85 1016.8
20260507133129 59 360 0.9 4.3 0.00 0.00 0.00 85 1016.4
20260507131558 59 360 0.9 4.3 0.00 0.00 0.00 85 1016.7
20260507130108 59 360 0.0 2.6 0.00 0.00 0.00 85 1016.5
20260507124558 59 360 0.9 2.6 0.00 0.00 0.00 85 1016.2
20260507123105 59 0 0.9 2.6 0.00 0.00 0.00 84 1016.2
20260507121621 60 0 0.0 2.6 0.00 0.00 0.00 84 1016.1
20260507120109 60 17 0.0 2.6 0.00 0.00 0.00 85 1016.0
20260507114640 60 0 0.0 2.6 0.00 0.00 0.00 85 1015.9
20260507113100 60 32 0.0 1.7 0.00 0.00 0.00 86 1015.3
20260507111604 60 13 0.0 1.7 0.00 0.00 0.00 86 1014.8
20260507110055 60 0 0.0 2.6 0.00 0.00 0.00 86 1014.7
20260507104554 61 27 0.9 1.7 0.00 0.00 0.00 87 1014.6
20260507103054 61 30 0.0 2.6 0.00 0.00 0.00 87 1014.6
20260507101603 61 0 0.0 2.6 0.00 0.00 0.00 88 1014.7
20260507100057 61 0 0.0 1.7 0.00 0.00 0.00 88 1014.0
20260507094604 61 0 0.0 0.9 0.00 0.00 0.00 88 1014.0
20260507093054 61 0 0.0 2.6 0.00 0.00 0.00 88 1013.8
20260507091552 61 0 0.0 2.6 0.00 0.00 0.00 88 1013.5
20260507090100 61 0 0.0 1.7 0.00 0.00 0.00 88 1012.9
20260507084558 61 56 0.0 2.6 0.00 0.00 0.00 87 1012.9
20260507083053 62 0 0.9 4.3 0.00 0.00 0.00 87 1013.0
20260507081553 62 0 0.0 1.7 0.00 0.00 0.00 87 1013.9
20260507080119 61 0 0.0 1.7 0.00 0.00 0.00 87 1013.5
20260507074558 61 59 0.9 4.3 0.00 0.00 0.00 86 1012.8
20260507073106 62 61 0.9 3.5 0.00 0.00 0.00 86 1013.6
20260507071555 62 59 0.9 2.6 0.00 0.00 0.00 85 1013.3
20260507070055 62 61 0.0 3.5 0.00 0.00 0.00 85 1014.0
20260507064600 62 0 0.0 2.6 0.00 0.00 0.00 85 1013.7
20260507063102 62 57 0.9 3.5 0.00 0.00 0.00 85 1013.9
20260507061553 62 0 0.0 3.5 0.00 0.00 0.00 84 1014.3
20260507060053 62 42 0.0 4.3 0.00 0.00 0.00 84 1013.6
20260507054552 62 63 0.0 1.7 0.00 0.00 0.00 84 1013.7
20260507053053 62 0 0.0 1.7 0.00 0.00 0.00 83 1014.0
20260507051553 62 314 0.0 1.7 0.00 0.00 0.00 83 1013.9
20260507050054 63 5 0.0 1.7 0.00 0.00 0.00 83 1013.7
20260507044555 63 350 0.9 3.5 0.00 0.00 0.00 82 1013.9
20260507043055 63 355 0.0 1.7 0.00 0.00 0.00 82 1013.8
20260507041554 63 0 0.0 3.5 0.00 0.00 0.00 82 1014.1
20260507034556 63 0 0.0 3.5 0.00 0.00 0.00 81 1013.5
20260507033101 63 0 0.0 1.7 0.00 0.00 0.00 81 1013.5
20260507031553 63 0 0.0 2.6 0.00 0.00 0.00 81 1013.2